Regional Weather Roundup
Issued by NWS Portland, ME

Current Version | Previous Version | Text Only | Print | Product List | Glossary Off
Versions: 1 2 3 4 5 6 7 8 9 10 11 12 13 14 15 16 17 18 19 20 21 22 23 24 25 26 27 28 29 30 31 32 33 34 35 36 37 38 39 40 41 42 43 44 45 46 47 48 49 50
000 ASUS41 KGYX 270710 RWRGYX WEATHER ROUNDUP FOR MAINE AND NEW HAMPSHIRE NATIONAL WEATHER SERVICE GRAY ME 300 AM EDT FRI APR 27 2018 MEZ002-005-006-010-012-015-018-020-021-024-026-027-029-270800- MAINE CITY SKY/WX TMP DP RH WIND PRES REMARKS PORTLAND FAIR 45 40 82 VRB5 29.81R SANFORD FAIR 43 39 86 SW3 29.83R BAR HARBOR FAIR 45 44 97 SW7 29.77R WISCASSET FAIR 40 40 100 SW3 29.82R ROCKLAND FAIR 47 44 90 SW8 29.80R FRYEBURG FAIR 43 42 97 CALM 29.81R LEWISTONAUBURN FAIR 40 40 100 CALM 29.81R AUGUSTA FAIR 47 41 80 SW5 29.79R WATERVILLE FAIR 44 41 89 SW6 29.75S BANGOR FAIR 48 43 82 W6 29.75R GREENVILLE N/A 42 42 100 VRB7G17 29.70R MILLINOCKET CLOUDY 47 43 86 CALM 29.72R HOULTON NOT AVBL PRESQUE ISLE CLOUDY 45 43 93 SW7 29.66R FRENCHVILLE CLOUDY 45 41 86 W12 29.61R CARIBOU CLOUDY 44 42 93 SW7 29.63R $$ NHZ002-005-008-009-011-012-014-270800- NEW HAMPSHIRE CITY SKY/WX TMP DP RH WIND PRES REMARKS PORTSMOUTH PTCLDY 47 40 77 W9 29.82R ROCHESTER FAIR 47 40 76 VRB3 29.82R NASHUA FAIR 43 41 93 CALM 29.86S MANCHESTER FAIR 49 40 71 S5 29.84S CONCORD FAIR 44 39 82 W8 29.85R LACONIA CLOUDY 46 40 79 W5 29.84S PLYMOUTH CLOUDY 49 40 70 W5 29.84R BERLIN CLOUDY 47 43 86 CALM 29.80S WHITEFIELD CLOUDY 45 44 97 CALM 29.83S FOG JAFFREY FAIR 42 41 96 CALM 29.86S KEENE FAIR 38 36 92 CALM 29.87S LEBANON CLOUDY 46 39 76 S5 29.85S MT WASHINGTON FRZ DRZL 28 28 100 W25 N/A VSB 1/16WCI 14 $$ VTZ005-007-008-270800- VERMONT CITY SKY/WX TMP DP RH WIND PRES REMARKS ST JOHNSBURY N/A 47 43 86 MISG 29.82S MONTPELIER CLOUDY 45 42 89 SW3 29.87R BURLINGTON CLOUDY 49 42 77 S8 29.84R $$ MAZ007-012-024-CTZ003-RIZ002-NYZ038-NYZ072-270800- SOUTHERN NEW ENGLAND AND NY CITY SKY/WX TMP DP RH WIND PRES REMARKS BOSTON FAIR 51 41 68 W8 29.87R WORCESTER FAIR 44 37 76 W7 29.86S NANTUCKET FAIR 44 44 100 SW8 29.90R FOG PROVIDENCE FAIR 51 42 71 W3 29.89R HARTFORD MOCLDY 45 41 86 W3 29.88F ALBANY MOCLDY 39 36 89 CALM 29.88F NEW YORK CITY MOCLDY 56 42 59 E5 29.85F $$ ANZ081-ANZ082-ANZ150-NHZ014-MEZ023>029-270800- COASTAL MARINE OBSERVATIONS STATION/POSITION TIME TEMP WIND PRES WAVE AIR SEA DIR/SP/G HT/PER (UTC) (F) (DEG/KT/KT) (MB) (FT/S) MOUNT DESERT ROC 0700 44 240/ 13/ 13 1008.9R MATINICUS ROCK 0700 45 270/ 16/ 17 1008.7R ISLE OF SHOALS 0700 47 250/ 12/ 13 1010.1R JEFFREYS LEDGE 0636 44 N/A 8/11 CASHES LEDGE BUO 0650 44 43 1009.8R 9/11 $$ .............KEY.............. WCI - WIND CHILL TC - TEMPERATURE IN CELSIUS VSB - VISIBILITY IN MILES HX - HEAT INDEX FAIR- INDICATES FEW OR NO CLOUDS BELOW 12,000 FT, WITH NO SIGNIFICANT WEATHER AND/OR OBSTRUCTIONS TO VISIBILITY.

USA.gov is the U.S. government's official web portal to all federal, state and local government web resources and services.